Meteo pe oră la Aloha

Astăzi, 21 Ianuarie, Joi

Timp Temperatura Precipitaţii Vânt Presiune Umiditate
00:00 +6°C° 0.2 mm 0 m/s 759 mmHg 83%
01:00 +5°C° 0.2 mm 0 m/s 759 mmHg 86%
02:00 +5°C° 0.2 mm 0 m/s 759 mmHg 87%
03:00 +5°C° 0.2 mm 0 m/s 758 mmHg 87%
04:00 +5°C° 0.2 mm 0 m/s 758 mmHg 88%
05:00 +5°C° 0.3 mm 0 m/s 758 mmHg 89%
06:00 +5°C° 0.3 mm 0 m/s 758 mmHg 90%
07:00 +5°C° 0.3 mm 0 m/s 757 mmHg 91%
08:00 +5°C° 0.1 mm 0 m/s 757 mmHg 90%
09:00 +6°C° 0.1 mm 0 m/s 757 mmHg 88%
10:00 +6°C° 0.1 mm 0 m/s 757 mmHg 87%
11:00 +7°C° 0.1 mm 0 m/s 757 mmHg 84%
12:00 +8°C° 0.1 mm 0 m/s 757 mmHg 82%
13:00 +9°C° 0.1 mm 1 m/s 756 mmHg 80%
14:00 +9°C° 0 mm 1 m/s 756 mmHg 81%
15:00 +9°C° 0 mm 1 m/s 756 mmHg 83%
16:00 +9°C° 0 mm 1 m/s 755 mmHg 85%
17:00 +8°C° 0.2 mm 1 m/s 756 mmHg 87%
18:00 +8°C° 0.2 mm 1 m/s 756 mmHg 89%
19:00 +8°C° 0.2 mm 1 m/s 756 mmHg 91%
20:00 +8°C° 0.2 mm 1 m/s 756 mmHg 92%
21:00 +8°C° 0.2 mm 1 m/s 756 mmHg 92%
22:00 +7°C° 0.2 mm 1 m/s 756 mmHg 93%
23:00 +7°C° 0.1 mm 1 m/s 756 mmHg 92%

Mâine, 22 Ianuarie, Vineri

Timp Temperatura Precipitaţii Vânt Presiune Umiditate
00:00 +6°C° 0.1 mm 2 m/s 756 mmHg 91%
01:00 +6°C° 0.1 mm 2 m/s 756 mmHg 90%
02:00 +5°C° 0 mm 2 m/s 756 mmHg 90%
03:00 +5°C° 0 mm 2 m/s 756 mmHg 90%
04:00 +5°C° 0 mm 2 m/s 756 mmHg 90%
05:00 +5°C° 0 mm 2 m/s 756 mmHg 90%
06:00 +5°C° 0 mm 1 m/s 756 mmHg 90%
07:00 +5°C° 0 mm 1 m/s 756 mmHg 91%
08:00 +6°C° 0 mm 1 m/s 756 mmHg 88%
09:00 +6°C° 0 mm 1 m/s 756 mmHg 85%
10:00 +7°C° 0 mm 1 m/s 756 mmHg 82%
11:00 +8°C° 0 mm 1 m/s 756 mmHg 78%
12:00 +7°C° 0 mm 2 m/s 756 mmHg 73%
13:00 +8°C° 0 mm 2 m/s 756 mmHg 69%
14:00 +8°C° 0 mm 2 m/s 756 mmHg 71%
15:00 +8°C° 0 mm 2 m/s 756 mmHg 73%
16:00 +7°C° 0 mm 2 m/s 756 mmHg 75%
17:00 +6°C° 0 mm 2 m/s 756 mmHg 79%
18:00 +5°C° 0 mm 2 m/s 757 mmHg 84%
19:00 +5°C° 0 mm 1 m/s 757 mmHg 89%
20:00 +5°C° 0 mm 1 m/s 757 mmHg 88%
21:00 +4°C° 0 mm 1 m/s 758 mmHg 88%
22:00 +4°C° 0 mm 1 m/s 758 mmHg 88%
23:00 +3°C° 0 mm 1 m/s 759 mmHg 87%

Poimâine, 23 Ianuarie, Sâmbătă

Timp Temperatura Precipitaţii Vânt Presiune Umiditate
00:00 +3°C° 0 mm 1 m/s 759 mmHg 86%
01:00 +3°C° 0 mm 1 m/s 759 mmHg 86%
02:00 +2°C° 0 mm 1 m/s 759 mmHg 85%
03:00 +2°C° 0 mm 1 m/s 759 mmHg 84%
04:00 +1°C° 0 mm 0 m/s 759 mmHg 83%
05:00 0°C° 0 mm 0 m/s 759 mmHg 83%
06:00 0°C° 0 mm 0 m/s 759 mmHg 83%
07:00 0°C° 0 mm 0 m/s 760 mmHg 83%
08:00 +1°C° 0 mm 0 m/s 760 mmHg 79%
09:00 +2°C° 0 mm 0 m/s 760 mmHg 75%
10:00 +4°C° 0 mm 0 m/s 760 mmHg 70%
11:00 +5°C° 0 mm 0 m/s 760 mmHg 67%
12:00 +7°C° 0 mm 1 m/s 759 mmHg 63%
13:00 +8°C° 0 mm 1 m/s 759 mmHg 59%
14:00 +8°C° 0 mm 1 m/s 759 mmHg 62%
15:00 +8°C° 0 mm 1 m/s 759 mmHg 65%
16:00 +7°C° 0 mm 1 m/s 759 mmHg 68%
17:00 +7°C° 0 mm 1 m/s 759 mmHg 71%
18:00 +6°C° 0 mm 1 m/s 759 mmHg 73%
19:00 +6°C° 0 mm 1 m/s 758 mmHg 76%
20:00 +6°C° 0 mm 1 m/s 758 mmHg 78%
21:00 +6°C° 0 mm 1 m/s 758 mmHg 80%
22:00 +4°C° 0 mm 2 m/s 757 mmHg 82%
23:00 +4°C° 0 mm 2 m/s 757 mmHg 82%

24 Ianuarie, Duminică

Timp Temperatura Precipitaţii Vânt Presiune Umiditate
00:00 +4°C° 0 mm 2 m/s 756 mmHg 82%
01:00 +4°C° 0 mm 2 m/s 756 mmHg 81%
02:00 +4°C° 0 mm 2 m/s 755 mmHg 82%
03:00 +4°C° 0 mm 2 m/s 754 mmHg 82%
04:00 +4°C° 0 mm 2 m/s 753 mmHg 83%
05:00 +3°C° 0.3 mm 2 m/s 753 mmHg 86%
06:00 +3°C° 0.3 mm 2 m/s 752 mmHg 90%
07:00 +3°C° 0.3 mm 2 m/s 751 mmHg 93%
08:00 +3°C° 0.7 mm 2 m/s 751 mmHg 94%
09:00 +3°C° 0.7 mm 2 m/s 751 mmHg 95%
10:00 +3°C° 0.7 mm 2 m/s 750 mmHg 96%
11:00 +3°C° 0.9 mm 2 m/s 750 mmHg 96%
12:00 +3°C° 0.9 mm 2 m/s 750 mmHg 96%
13:00 +3°C° 0.9 mm 2 m/s 750 mmHg 96%
14:00 +4°C° 1 mm 2 m/s 750 mmHg 96%
15:00 +4°C° 1 mm 2 m/s 750 mmHg 96%
16:00 +4°C° 1 mm 2 m/s 750 mmHg 95%
17:00 +4°C° 0.3 mm 2 m/s 750 mmHg 95%
18:00 +4°C° 0.3 mm 2 m/s 750 mmHg 95%
19:00 +4°C° 0.3 mm 2 m/s 751 mmHg 94%
20:00 +4°C° 0.1 mm 2 m/s 751 mmHg 93%
21:00 +3°C° 0.1 mm 2 m/s 751 mmHg 92%
22:00 +3°C° 0.1 mm 2 m/s 752 mmHg 91%
23:00 +2°C° 0 mm 2 m/s 752 mmHg 91%

25 Ianuarie, Luni

Timp Temperatura Precipitaţii Vânt Presiune Umiditate
00:00 +2°C° 0 mm 2 m/s 752 mmHg 91%
01:00 +2°C° 0 mm 2 m/s 752 mmHg 91%
02:00 +2°C° 0.1 mm 2 m/s 752 mmHg 92%
03:00 +1°C° 0.1 mm 2 m/s 752 mmHg 92%
04:00 +1°C° 0.1 mm 2 m/s 752 mmHg 93%
05:00 +1°C° 0.1 mm 2 m/s 752 mmHg 93%
06:00 +1°C° 0.1 mm 2 m/s 753 mmHg 93%
07:00 +1°C° 0.1 mm 2 m/s 753 mmHg 93%
08:00 +1°C° 0.1 mm 3 m/s 753 mmHg 92%
09:00 +1°C° 0.1 mm 3 m/s 753 mmHg 91%
10:00 +2°C° 0.1 mm 3 m/s 753 mmHg 90%
11:00 +2°C° 0.2 mm 3 m/s 753 mmHg 89%
12:00 +3°C° 0.2 mm 3 m/s 752 mmHg 89%
13:00 +3°C° 0.2 mm 3 m/s 752 mmHg 88%
14:00 +5°C° 0.2 mm 2 m/s 752 mmHg 87%
15:00 +5°C° 0.2 mm 2 m/s 752 mmHg 86%
16:00 +5°C° 0.2 mm 2 m/s 752 mmHg 85%
17:00 +4°C° 0.4 mm 2 m/s 752 mmHg 87%
18:00 +3°C° 0.4 mm 2 m/s 752 mmHg 89%
19:00 +2°C° 0.4 mm 2 m/s 752 mmHg 91%
20:00 +2°C° 0 mm 2 m/s 751 mmHg 93%
21:00 +2°C° 0 mm 2 m/s 751 mmHg 94%
22:00 +2°C° 0 mm 2 m/s 751 mmHg 96%
23:00 +1°C° 0.1 mm 3 m/s 750 mmHg 94%

26 Ianuarie, Marţi

Timp Temperatura Precipitaţii Vânt Presiune Umiditate
00:00 +1°C° 0.1 mm 3 m/s 750 mmHg 93%
01:00 +1°C° 0.1 mm 3 m/s 749 mmHg 92%
02:00 +1°C° 0 mm 3 m/s 748 mmHg 91%
03:00 +1°C° 0 mm 3 m/s 747 mmHg 90%
04:00 +1°C° 0 mm 3 m/s 746 mmHg 90%
05:00 +1°C° 0.1 mm 3 m/s 745 mmHg 87%
06:00 +1°C° 0.1 mm 3 m/s 743 mmHg 85%
07:00 +1°C° 0.1 mm 3 m/s 742 mmHg 83%
08:00 0°C° 1.4 mm 3 m/s 740 mmHg 87%
09:00 -1°C° 1.4 mm 4 m/s 739 mmHg 91%
10:00 -1°C° 1.4 mm 4 m/s 738 mmHg 94%
11:00 +1°C° 1.2 mm 3 m/s 737 mmHg 95%
12:00 +1°C° 1.2 mm 3 m/s 737 mmHg 95%
13:00 +3°C° 1.2 mm 2 m/s 736 mmHg 95%
14:00 +3°C° 1.1 mm 2 m/s 737 mmHg 95%
15:00 +3°C° 1.1 mm 2 m/s 737 mmHg 95%
16:00 +3°C° 1.1 mm 2 m/s 737 mmHg 95%
17:00 +2°C° 0.7 mm 3 m/s 737 mmHg 95%
18:00 +2°C° 0.7 mm 3 m/s 738 mmHg 95%
19:00 +1°C° 0.7 mm 3 m/s 738 mmHg 95%
20:00 +1°C° 0 mm 3 m/s 739 mmHg 95%
21:00 +2°C° 0 mm 2 m/s 739 mmHg 95%
22:00 +2°C° 0 mm 2 m/s 740 mmHg 95%
23:00 +1°C° 0 mm 2 m/s 740 mmHg 94%
Arată mai mult

Formular de consimțământ

Meteoprog și furnizorii noștri de servicii pot stoca și accesa date personale, precum cookies, identificatori de dispozitiv sau alte tehnologii similare pe dispozitivul dumneavoastră și procesa astfel de date pentru a personaliza conținutul și reclamele, dar și pentru a oferi caracteristici de social media și pentru a analiza traficul.

  • Stocarea și/sau accesarea informațiilor pe dispozitivul dumneavoastră

    Cookies, identificatori de dispozitiv sau alte informații pot fi stocate sau accesate pe dispozitiv în scopurile indicate mai sus.

  • Reclame și conținut personalizat, evaluarea reclamelor și a conținutului, informații despre audiențe și dezvoltarea produselor

    Reclamele și conținutul pot fi personalizate pe baza unui profil. Pot fi adăugate date suplimentare pentru a personaliza mai bine reclamele și conținutul. Performanța reclamelor și conținutului poate fi măsurată. Pot fi obținute informații despre utilizatorii care au văzut reclamele și conținutul. Aceste date pot fi utilizate pentru a dezvolta sau îmbunătăți experiența utilizatorilor, sistemele și software-ul.

Dând clic pe ‘Sunt de acord’, permiteți utilizarea cookie-urilor menționate, a identificatorilor de dispozitiv, balizelor web sau altor tehnologii similare. Setările pot fi modificate din browser-ul dispozitivului dumneavoastră.

În anumite scopuri, interesele legitime pot prima asupra consimțământului. Puteți citi mai multe informații în acest sens în Politica privind Confidențialitatea Datelor și Cookie.